Location: Prosper
(33.2362°N, 96.8011°W)
Time: 02:14:46
(UTC+00:00)

YAOGAN 6 - Pass Details

Date: 03 December 2021
Orbit: 461 x 501 km, 97.1° (Epoch: 17 January)

Event Time Altitude Azimuth Distance (km) Brightness Sun altitude
Exits shadow 12:03:58 17° 242° (WSW) 1,327 4.4 -14.6°
Drops below altitude 10° 12:05:02 10° 229° (SW) 1,679 5.0 -14.3°
Sets 12:07:19 0° 217° (SW) 2,548 6.0 -13.9°
